Location: Caltech
(34.1382°N, 118.1253°W)
Time: 08:51:55
(UTC-07:00)

Uosat F - Visible Passes

Search period start: 20 April 2014 00:00
Search period end: 30 April 2014 00:00
Orbit: 751 x 763 km, 98.7° (Epoch: 19 April)

Date Brightness Start Highest point End Pass type
(mag) Time Alt. Az. Time Alt. Az. Time Alt. Az.
20 Apr 11.6 04:41:34 10° NNE 04:46:30 57° E 04:51:23 10° S visible
21 Apr 13.2 04:03:26 10° NE 04:07:17 22° E 04:11:06 10° SE visible
21 Apr 11.8 05:41:36 10° N 05:46:05 34° WNW 05:50:32 10° SW visible
22 Apr 11.0 05:02:10 10° NNE 05:07:11 87° WNW 05:12:11 10° SSW visible
23 Apr 12.5 04:23:29 10° NNE 04:28:05 36° E 04:32:38 10° SSE visible
24 Apr 13.7 03:46:14 10° ENE 03:48:46 14° E 03:51:18 10° SE visible
24 Apr 11.3 05:22:57 10° N 05:27:49 53° WNW 05:32:39 10° SSW visible
25 Apr 11.6 04:43:52 10° NNE 04:48:49 60° ESE 04:53:44 10° S visible
26 Apr 13.2 04:05:41 10° NE 04:09:37 23° E 04:13:31 10° SSE visible
27 Apr 11.0 05:04:28 10° NNE 05:09:30 84° WNW 05:14:29 10° SSW visible
28 Apr 12.4 04:25:45 10° NNE 04:30:23 37° E 04:35:00 10° SSE visible
29 Apr 13.7 03:48:22 10° ENE 03:51:05 15° E 03:53:47 10° SE visible
29 Apr 11.3 05:25:16 10° N 05:30:06 51° WNW 05:34:56 10° SSW visible
